Time,TemperatureF,DewpointF,PressureIn,WindDirection,WindDirectionDegrees,WindSpeedMPH,WindSpeedGustMPH,Humidity,HourlyPrecipIn,Conditions,Clouds,dailyrainin,SoftwareType,DateUTC
2013-05-11 00:01:00,67.1,59.7,30.05,South,180,0.4,1.1,77,0.00,,,0.00,WUHU216HW,2013-05-11 04:01:00,
2013-05-11 00:06:00,67.3,59.9,30.05,SSW,203,1.1,1.1,77,0.00,,,0.00,WUHU216HW,2013-05-11 04:06:00,
2013-05-11 00:12:00,67.3,59.9,30.05,WSW,248,0.4,1.1,77,0.00,,,0.00,WUHU216HW,2013-05-11 04:12:00,
2013-05-11 00:17:00,67.3,59.9,30.05,South,180,0.9,0.9,77,0.00,,,0.00,WUHU216HW,2013-05-11 04:17:00,
2013-05-11 00:22:00,67.3,59.9,30.05,SW,225,0.4,0.9,77,0.00,,,0.00,WUHU216HW,2013-05-11 04:22:00,
2013-05-11 00:27:00,67.3,59.9,30.05,SSW,203,1.1,1.1,77,0.00,,,0.00,WUHU216HW,2013-05-11 04:27:00,
2013-05-11 00:32:00,67.3,59.9,30.05,South,180,0.7,1.1,77,0.00,,,0.00,WUHU216HW,2013-05-11 04:32:00,
2013-05-11 00:37:00,67.1,59.7,30.05,South,180,1.6,1.6,77,0.00,,,0.00,WUHU216HW,2013-05-11 04:37:00,
2013-05-11 00:42:00,67.0,59.5,30.05,South,180,1.8,1.8,77,0.00,,,0.00,WUHU216HW,2013-05-11 04:42:00,
2013-05-11 00:47:00,66.8,59.3,30.05,South,180,1.1,1.8,77,0.00,,,0.00,WUHU216HW,2013-05-11 04:47:00,
2013-05-11 00:52:00,66.4,59.0,30.05,South,180,1.6,1.8,77,0.00,,,0.00,WUHU216HW,2013-05-11 04:52:00,
2013-05-11 00:58:00,66.2,59.2,30.05,SSW,203,1.3,1.6,78,0.00,,,0.00,WUHU216HW,2013-05-11 04:58:00,
2013-05-11 01:03:00,66.2,59.2,30.05,South,180,1.1,1.6,78,0.00,,,0.00,WUHU216HW,2013-05-11 05:03:00,
2013-05-11 01:08:00,66.1,59.1,30.04,SSE,158,1.8,1.8,78,0.00,,,0.00,WUHU216HW,2013-05-11 05:08:00,
2013-05-11 01:13:00,65.9,58.9,30.05,South,180,0.7,1.8,78,0.00,,,0.00,WUHU216HW,2013-05-11 05:13:00,
2013-05-11 01:18:00,65.9,58.9,30.05,SW,225,1.1,1.8,78,0.00,,,0.00,WUHU216HW,2013-05-11 05:18:00,
2013-05-11 01:23:00,65.9,59.2,30.05,South,180,2.0,2.0,79,0.00,,,0.00,WUHU216HW,2013-05-11 05:23:00,
2013-05-11 01:28:00,65.7,59.1,30.05,SW,225,1.6,2.0,79,0.00,,,0.00,WUHU216HW,2013-05-11 05:28:00,
2013-05-11 01:33:00,65.5,59.2,30.04,SW,225,2.9,2.9,80,0.00,,,0.00,WUHU216HW,2013-05-11 05:33:00,
2013-05-11 01:38:00,65.5,59.2,30.04,SSW,203,1.6,2.9,80,0.00,,,0.00,WUHU216HW,2013-05-11 05:38:00,
2013-05-11 01:44:00,65.3,59.0,30.04,SSW,203,1.8,2.9,80,0.00,,,0.00,WUHU216HW,2013-05-11 05:44:00,
2013-05-11 01:49:00,65.2,58.9,30.03,SW,225,1.8,1.8,80,0.00,,,0.00,WUHU216HW,2013-05-11 05:49:00,
2013-05-11 01:54:00,65.2,58.9,30.03,South,180,2.5,2.5,80,0.00,,,0.00,WUHU216HW,2013-05-11 05:54:00,
2013-05-11 01:59:00,65.2,58.9,30.03,SW,225,2.0,2.5,80,0.00,,,0.00,WUHU216HW,2013-05-11 05:59:00,
2013-05-11 02:04:00,65.0,58.7,30.03,SSE,158,1.3,2.5,80,0.00,,,0.00,WUHU216HW,2013-05-11 06:04:00,
2013-05-11 02:09:00,65.0,58.7,30.02,SSW,200,2.2,3.1,80,0.00,,,0.00,WUHU216HW,2013-05-11 06:09:00,
2013-05-11 02:14:00,65.0,59.1,30.02,SW,225,1.6,3.1,81,0.00,,,0.00,WUHU216HW,2013-05-11 06:14:00,
2013-05-11 02:19:00,65.0,59.1,30.02,SW,225,3.8,3.8,81,0.00,,,0.00,WUHU216HW,2013-05-11 06:19:00,
2013-05-11 02:24:00,65.2,59.2,30.02,SSW,203,2.5,3.8,81,0.00,,,0.00,WUHU216HW,2013-05-11 06:24:00,
2013-05-11 02:30:00,65.2,59.2,30.02,WSW,248,2.0,3.8,81,0.00,,,0.00,WUHU216HW,2013-05-11 06:30:00,
2013-05-11 02:35:00,65.2,59.2,30.02,SW,225,1.8,2.5,81,0.00,,,0.00,WUHU216HW,2013-05-11 06:35:00,
2013-05-11 02:40:00,65.2,59.2,30.02,SW,225,5.4,5.4,81,0.00,,,0.00,WUHU216HW,2013-05-11 06:40:00,
2013-05-11 02:45:00,65.2,59.2,30.01,SW,225,3.4,5.4,81,0.00,,,0.00,WUHU216HW,2013-05-11 06:45:00,
2013-05-11 02:50:00,65.2,59.2,30.01,West,270,1.8,5.4,81,0.00,,,0.00,WUHU216HW,2013-05-11 06:50:00,
2013-05-11 02:55:00,65.2,58.9,30.01,WSW,248,1.8,3.4,80,0.00,,,0.00,WUHU216HW,2013-05-11 06:55:00,
2013-05-11 03:00:00,65.0,58.7,30.00,WSW,248,1.2,1.8,80,0.00,,,0.00,WUHU216HW,2013-05-11 07:00:00,
2013-05-11 03:05:00,64.8,58.9,30.00,SSW,203,1.6,1.8,81,0.00,,,0.00,WUHU216HW,2013-05-11 07:05:00,
2013-05-11 03:10:00,64.6,58.7,30.00,SW,225,1.3,1.6,81,0.00,,,0.00,WUHU216HW,2013-05-11 07:10:00,
2013-05-11 03:16:00,64.6,58.7,30.00,SW,225,1.3,1.6,81,0.00,,,0.00,WUHU216HW,2013-05-11 07:16:00,
2013-05-11 03:21:00,64.4,58.5,30.00,South,180,1.1,2.2,81,0.00,,,0.00,WUHU216HW,2013-05-11 07:21:00,
2013-05-11 03:26:00,64.3,58.3,30.00,SSW,203,1.3,2.2,81,0.00,,,0.00,WUHU216HW,2013-05-11 07:26:00,
2013-05-11 03:31:00,64.1,57.8,30.00,South,180,2.0,2.0,80,0.00,,,0.00,WUHU216HW,2013-05-11 07:31:00,
2013-05-11 03:36:00,63.9,58.0,30.00,SW,227,2.3,2.5,81,0.00,,,0.00,WUHU216HW,2013-05-11 07:36:00,
2013-05-11 03:41:00,63.9,58.0,30.00,SW,225,1.8,2.5,81,0.00,,,0.00,WUHU216HW,2013-05-11 07:41:00,
2013-05-11 03:46:00,63.7,57.8,30.00,SSW,203,2.5,2.5,81,0.00,,,0.00,WUHU216HW,2013-05-11 07:46:00,
2013-05-11 03:51:00,63.7,57.8,30.00,SW,225,2.5,2.5,81,0.00,,,0.00,WUHU216HW,2013-05-11 07:51:00,
2013-05-11 03:57:00,63.7,58.2,30.00,SSW,202,2.5,2.5,82,0.00,,,0.00,WUHU216HW,2013-05-11 07:57:00,
2013-05-11 04:02:00,63.7,57.8,30.00,South,180,1.3,2.5,81,0.00,,,0.00,WUHU216HW,2013-05-11 08:02:00,
2013-05-11 04:07:00,63.7,58.2,30.01,WSW,248,1.6,1.6,82,0.00,,,0.00,WUHU216HW,2013-05-11 08:07:00,
2013-05-11 04:12:00,63.7,58.2,30.00,SW,225,2.5,2.5,82,0.00,,,0.00,WUHU216HW,2013-05-11 08:12:00,
2013-05-11 04:17:00,63.7,58.2,30.00,SW,225,1.1,2.5,82,0.00,,,0.00,WUHU216HW,2013-05-11 08:17:00,
2013-05-11 04:22:00,63.9,58.3,30.00,SW,225,1.8,2.5,82,0.00,,,0.00,WUHU216HW,2013-05-11 08:22:00,
2013-05-11 04:27:00,64.1,58.2,30.00,SSE,158,2.2,2.2,81,0.00,,,0.00,WUHU216HW,2013-05-11 08:27:00,
2013-05-11 04:32:00,64.1,58.2,30.00,SSE,168,1.7,2.2,81,0.00,,,0.00,WUHU216HW,2013-05-11 08:32:00,
2013-05-11 04:37:00,63.9,58.0,30.00,SW,225,1.6,2.2,81,0.00,,,0.00,WUHU216HW,2013-05-11 08:37:00,
2013-05-11 04:42:00,63.9,58.0,30.01,South,180,1.8,1.8,81,0.00,,,0.00,WUHU216HW,2013-05-11 08:42:00,
2013-05-11 04:48:00,63.9,58.0,30.00,SSE,158,2.5,2.5,81,0.00,,,0.00,WUHU216HW,2013-05-11 08:48:00,
2013-05-11 04:53:00,63.9,58.0,30.00,SSW,203,2.0,2.5,81,0.00,,,0.00,WUHU216HW,2013-05-11 08:53:00,
2013-05-11 04:58:00,63.7,57.8,30.00,South,180,2.5,2.5,81,0.00,,,0.00,WUHU216HW,2013-05-11 08:58:00,
2013-05-11 05:03:00,63.7,57.8,30.00,SSE,158,2.2,2.5,81,0.00,,,0.00,WUHU216HW,2013-05-11 09:03:00,
2013-05-11 05:08:00,63.5,57.6,30.00,SW,225,2.0,2.5,81,0.00,,,0.00,WUHU216HW,2013-05-11 09:08:00,
2013-05-11 05:13:00,63.5,58.0,30.00,SW,216,0.3,2.2,82,0.00,,,0.00,WUHU216HW,2013-05-11 09:13:00,
2013-05-11 05:18:00,63.5,57.6,30.00,South,180,0.4,2.0,81,0.00,,,0.00,WUHU216HW,2013-05-11 09:18:00,
2013-05-11 05:24:00,63.5,58.0,30.00,SSE,158,0.4,0.4,82,0.00,,,0.00,WUHU216HW,2013-05-11 09:24:00,
2013-05-11 05:29:00,63.4,57.4,29.99,South,180,1.8,1.8,81,0.00,,,0.00,WUHU216HW,2013-05-11 09:29:00,
2013-05-11 05:34:00,63.2,57.3,29.99,South,180,2.5,2.5,81,0.00,,,0.00,WUHU216HW,2013-05-11 09:34:00,
2013-05-11 05:39:00,62.8,57.3,29.99,SSW,203,3.1,3.1,82,0.00,,,0.00,WUHU216HW,2013-05-11 09:39:00,
2013-05-11 05:44:00,62.6,57.1,29.99,SSW,203,4.0,4.0,82,0.00,,,0.00,WUHU216HW,2013-05-11 09:44:00,
2013-05-11 05:49:00,62.3,56.7,29.99,South,180,2.5,4.0,82,0.00,,,0.00,WUHU216HW,2013-05-11 09:49:00,
2013-05-11 05:54:00,61.9,56.7,29.99,SSW,203,3.1,4.0,83,0.00,,,0.00,WUHU216HW,2013-05-11 09:54:00,
2013-05-11 05:59:00,61.7,56.5,29.99,South,180,2.2,3.1,83,0.00,,,0.00,WUHU216HW,2013-05-11 09:59:00,
2013-05-11 06:04:00,61.7,56.5,29.99,SW,225,2.5,2.5,83,0.00,,,0.00,WUHU216HW,2013-05-11 10:04:00,
2013-05-11 06:09:00,61.6,56.3,29.99,WSW,248,1.1,2.5,83,0.00,,,0.00,WUHU216HW,2013-05-11 10:09:00,
2013-05-11 06:14:00,61.6,56.3,29.99,SSW,203,1.8,2.5,83,0.00,,,0.00,WUHU216HW,2013-05-11 10:14:00,
2013-05-11 06:19:00,61.6,56.7,29.99,SSW,203,2.9,2.9,84,0.00,,,0.00,WUHU216HW,2013-05-11 10:19:00,
2013-05-11 06:24:00,61.6,57.1,30.00,SSW,203,2.9,2.9,85,0.00,,,0.00,WUHU216HW,2013-05-11 10:24:00,
2013-05-11 06:29:00,61.6,56.7,30.00,SW,225,2.9,2.9,84,0.00,,,0.00,WUHU216HW,2013-05-11 10:29:00,
2013-05-11 06:35:00,61.4,56.9,30.00,SSW,203,2.5,2.9,85,0.00,,,0.00,WUHU216HW,2013-05-11 10:35:00,
2013-05-11 06:40:00,61.4,56.9,30.00,SW,225,2.5,2.9,85,0.00,,,0.00,WUHU216HW,2013-05-11 10:40:00,
2013-05-11 06:45:00,61.6,57.1,30.00,South,180,2.5,2.5,85,0.00,,,0.00,WUHU216HW,2013-05-11 10:45:00,
2013-05-11 06:50:00,61.6,57.1,30.00,SSE,158,2.5,2.5,85,0.00,,,0.00,WUHU216HW,2013-05-11 10:50:00,
2013-05-11 06:55:00,61.6,56.7,30.00,SSW,203,3.9,4.0,84,0.00,,,0.00,WUHU216HW,2013-05-11 10:55:00,
2013-05-11 07:00:00,61.6,57.1,30.01,SSE,158,2.2,4.0,85,0.00,,,0.00,WUHU216HW,2013-05-11 11:00:00,
2013-05-11 07:05:00,61.6,56.7,30.00,SW,225,2.9,2.9,84,0.00,,,0.00,WUHU216HW,2013-05-11 11:05:00,
2013-05-11 07:10:00,61.7,57.2,30.00,South,180,2.9,2.9,85,0.00,,,0.00,WUHU216HW,2013-05-11 11:10:00,
2013-05-11 07:15:00,61.7,57.2,30.00,SSW,196,1.8,2.9,85,0.00,,,0.00,WUHU216HW,2013-05-11 11:15:00,
2013-05-11 07:20:00,62.1,57.5,30.00,South,180,1.3,2.9,85,0.00,,,0.00,WUHU216HW,2013-05-11 11:20:00,
2013-05-11 07:25:00,62.3,57.7,30.00,SSW,203,1.6,1.6,85,0.00,,,0.00,WUHU216HW,2013-05-11 11:25:00,
2013-05-11 07:31:00,62.5,57.9,29.99,SW,225,2.0,2.0,85,0.00,,,0.00,WUHU216HW,2013-05-11 11:31:00,
2013-05-11 07:35:00,62.6,57.7,29.99,SW,225,3.4,3.4,84,0.00,,,0.00,WUHU216HW,2013-05-11 11:35:00,
2013-05-11 07:40:00,63.0,58.1,30.00,South,177,3.3,3.4,84,0.00,,,0.00,WUHU216HW,2013-05-11 11:40:00,
2013-05-11 07:45:00,63.4,58.4,30.00,SSW,203,2.7,3.4,84,0.00,,,0.00,WUHU216HW,2013-05-11 11:45:00,
2013-05-11 07:50:00,63.9,59.0,30.00,South,180,3.8,3.8,84,0.00,,,0.00,WUHU216HW,2013-05-11 11:50:00,
2013-05-11 07:56:00,64.4,59.5,30.00,SSW,199,2.6,3.8,84,0.00,,,0.00,WUHU216HW,2013-05-11 11:56:00,
2013-05-11 08:00:00,64.8,59.9,30.00,SSE,158,2.0,3.8,84,0.00,,,0.00,WUHU216HW,2013-05-11 12:00:00,
2013-05-11 08:06:00,65.2,60.2,30.00,SSE,158,6.3,6.3,84,0.00,,,0.00,WUHU216HW,2013-05-11 12:06:00,
2013-05-11 08:11:00,65.5,60.2,30.00,SSE,158,5.9,6.3,83,0.00,,,0.00,WUHU216HW,2013-05-11 12:11:00,
2013-05-11 08:16:00,66.2,60.9,30.00,ENE,68,1.8,6.3,83,0.00,,,0.00,WUHU216HW,2013-05-11 12:16:00,
2013-05-11 08:21:00,68.0,62.4,30.00,SSW,203,2.0,5.6,82,0.00,,,0.00,WUHU216HW,2013-05-11 12:21:00,
2013-05-11 08:26:00,69.8,62.7,30.00,SSW,203,4.9,4.9,78,0.00,,,0.00,WUHU216HW,2013-05-11 12:26:00,
2013-05-11 08:31:00,72.2,64.2,30.00,WSW,243,3.0,4.9,76,0.00,,,0.00,WUHU216HW,2013-05-11 12:31:00,
2013-05-11 08:36:00,73.1,63.5,30.00,WSW,248,7.6,7.6,72,0.00,,,0.00,WUHU216HW,2013-05-11 12:36:00,
2013-05-11 08:41:00,73.4,64.4,30.00,West,270,3.6,7.6,73,0.00,,,0.00,WUHU216HW,2013-05-11 12:41:00,
2013-05-11 08:46:00,73.4,63.9,30.00,WSW,248,2.9,7.6,72,0.00,,,0.00,WUHU216HW,2013-05-11 12:46:00,
2013-05-11 08:51:00,73.1,63.2,30.00,SW,225,4.0,4.0,71,0.00,,,0.00,WUHU216HW,2013-05-11 12:51:00,
2013-05-11 08:56:00,72.2,62.6,30.00,WSW,248,6.1,6.3,72,0.00,,,0.00,WUHU216HW,2013-05-11 12:56:00,
2013-05-11 09:01:00,71.6,61.7,30.01,WSW,248,5.1,6.3,71,0.00,,,0.00,WUHU216HW,2013-05-11 13:01:00,
2013-05-11 09:06:00,71.5,61.9,30.00,West,270,4.7,5.8,72,0.00,,,0.00,WUHU216HW,2013-05-11 13:06:00,
2013-05-11 09:11:00,71.6,62.1,30.01,WSW,248,6.0,6.0,72,0.00,,,0.00,WUHU216HW,2013-05-11 13:11:00,
2013-05-11 09:16:00,71.8,62.3,30.01,West,270,4.7,6.0,72,0.00,,,0.00,WUHU216HW,2013-05-11 13:16:00,
2013-05-11 09:21:00,72.4,62.8,30.00,SW,226,5.0,6.0,72,0.00,,,0.00,WUHU216HW,2013-05-11 13:21:00,
2013-05-11 09:26:00,72.9,63.4,30.00,WSW,248,4.0,5.1,72,0.00,,,0.00,WUHU216HW,2013-05-11 13:26:00,
2013-05-11 09:31:00,73.1,63.2,30.01,West,270,7.4,7.4,71,0.00,,,0.00,WUHU216HW,2013-05-11 13:31:00,
2013-05-11 09:36:00,72.9,63.0,30.01,WSW,248,6.0,7.4,71,0.00,,,0.00,WUHU216HW,2013-05-11 13:36:00,
2013-05-11 09:41:00,73.1,63.2,30.00,SSW,203,6.9,7.4,71,0.00,,,0.00,WUHU216HW,2013-05-11 13:41:00,
2013-05-11 09:46:00,73.3,63.4,29.99,SSW,203,4.4,6.9,71,0.00,,,0.00,WUHU216HW,2013-05-11 13:46:00,
2013-05-11 09:51:00,73.8,63.6,30.00,West,270,7.2,7.2,70,0.00,,,0.00,WUHU216HW,2013-05-11 13:51:00,
2013-05-11 09:56:00,73.8,63.6,30.01,WSW,248,4.7,7.2,70,0.00,,,0.00,WUHU216HW,2013-05-11 13:56:00,
2013-05-11 10:02:00,74.5,64.2,30.01,WSW,248,9.8,9.8,70,0.00,,,0.00,WUHU216HW,2013-05-11 14:02:00,
2013-05-11 10:07:00,75.4,64.1,30.01,WSW,245,7.6,9.8,68,0.00,,,0.00,WUHU216HW,2013-05-11 14:07:00,
2013-05-11 10:12:00,75.8,63.6,30.00,West,270,7.6,9.8,66,0.00,,,0.00,WUHU216HW,2013-05-11 14:12:00,
2013-05-11 10:17:00,75.4,63.3,30.00,South,180,4.3,7.6,66,0.00,,,0.00,WUHU216HW,2013-05-11 14:17:00,
2013-05-11 10:22:00,75.8,64.0,30.00,West,270,5.6,7.6,67,0.00,,,0.00,WUHU216HW,2013-05-11 14:22:00,
2013-05-11 10:27:00,76.3,64.5,29.99,South,180,6.0,6.0,67,0.00,,,0.00,WUHU216HW,2013-05-11 14:27:00,
2013-05-11 10:32:00,76.7,64.4,29.99,SW,225,6.3,6.3,66,0.00,,,0.00,WUHU216HW,2013-05-11 14:32:00,
2013-05-11 10:37:00,77.0,64.4,29.99,WSW,248,6.9,6.9,65,0.00,,,0.00,WUHU216HW,2013-05-11 14:37:00,
2013-05-11 10:42:00,77.6,64.9,29.99,WSW,248,2.0,6.9,65,0.00,,,0.00,WUHU216HW,2013-05-11 14:42:00,
2013-05-11 10:47:00,78.1,65.0,29.99,SW,225,3.6,6.9,64,0.00,,,0.00,WUHU216HW,2013-05-11 14:47:00,
2013-05-11 10:52:00,77.9,64.8,29.99,South,180,4.0,4.0,64,0.00,,,0.00,WUHU216HW,2013-05-11 14:52:00,
2013-05-11 10:58:00,78.7,65.0,30.00,West,267,6.2,7.4,63,0.00,,,0.00,WUHU216HW,2013-05-11 14:58:00,
2013-05-11 11:03:00,78.8,64.4,29.99,SW,225,5.4,7.4,61,0.00,,,0.00,WUHU216HW,2013-05-11 15:03:00,
2013-05-11 11:08:00,78.8,64.4,29.99,SW,225,3.8,5.4,61,0.00,,,0.00,WUHU216HW,2013-05-11 15:08:00,
2013-05-11 11:13:00,78.8,64.4,29.99,SSW,203,5.1,5.4,61,0.00,,,0.00,WUHU216HW,2013-05-11 15:13:00,
2013-05-11 11:18:00,79.4,63.9,29.99,WSW,248,2.9,5.1,59,0.00,,,0.00,WUHU216HW,2013-05-11 15:18:00,
2013-05-11 11:23:00,79.9,64.4,29.99,SW,225,6.9,6.9,59,0.00,,,0.00,WUHU216HW,2013-05-11 15:23:00,
2013-05-11 11:28:00,80.1,64.5,29.98,South,180,3.6,6.9,59,0.00,,,0.00,WUHU216HW,2013-05-11 15:28:00,
2013-05-11 11:33:00,80.1,65.1,29.98,SW,225,4.0,6.9,60,0.00,,,0.00,WUHU216HW,2013-05-11 15:33:00,
2013-05-11 11:38:00,80.3,64.2,29.98,NW,315,3.4,4.0,58,0.00,,,0.00,WUHU216HW,2013-05-11 15:38:00,
2013-05-11 11:43:00,79.9,63.3,29.98,WSW,248,6.2,6.7,57,0.00,,,0.00,WUHU216HW,2013-05-11 15:43:00,
2013-05-11 11:48:00,79.9,64.4,29.98,West,265,4.4,6.7,59,0.00,,,0.00,WUHU216HW,2013-05-11 15:48:00,
2013-05-11 11:53:00,80.3,62.6,29.98,West,270,6.3,6.3,55,0.00,,,0.00,WUHU216HW,2013-05-11 15:53:00,
2013-05-11 11:58:00,79.9,62.3,29.97,West,270,4.7,6.3,55,0.00,,,0.00,WUHU216HW,2013-05-11 15:58:00,
2013-05-11 12:03:00,79.9,62.8,29.97,WSW,256,5.4,6.3,56,0.00,,,0.00,WUHU216HW,2013-05-11 16:03:00,
2013-05-11 12:08:00,80.5,63.8,29.97,West,270,6.3,6.3,57,0.00,,,0.00,WUHU216HW,2013-05-11 16:08:00,
2013-05-11 12:13:00,81.0,63.7,29.97,SW,225,3.4,6.3,56,0.00,,,0.00,WUHU216HW,2013-05-11 16:13:00,
2013-05-11 12:18:00,81.7,63.9,29.97,SW,225,8.5,8.5,55,0.00,,,0.00,WUHU216HW,2013-05-11 16:18:00,
2013-05-11 12:24:00,81.7,63.9,29.97,SW,225,5.8,8.5,55,0.00,,,0.00,WUHU216HW,2013-05-11 16:24:00,
2013-05-11 12:29:00,81.7,63.9,29.97,WSW,248,4.0,8.5,55,0.00,,,0.00,WUHU216HW,2013-05-11 16:29:00,
2013-05-11 12:34:00,81.4,63.0,29.97,West,270,8.7,8.7,54,0.00,,,0.00,WUHU216HW,2013-05-11 16:34:00,
2013-05-11 12:39:00,81.0,62.2,29.98,SW,225,3.1,8.7,53,0.00,,,0.00,WUHU216HW,2013-05-11 16:39:00,
2013-05-11 12:44:00,81.2,63.4,29.97,SW,225,4.0,8.7,55,0.00,,,0.00,WUHU216HW,2013-05-11 16:44:00,
2013-05-11 12:49:00,81.0,62.2,29.97,SW,225,5.1,5.1,53,0.00,,,0.00,WUHU216HW,2013-05-11 16:49:00,
2013-05-11 12:54:00,81.0,63.3,29.97,SW,231,5.3,5.4,55,0.00,,,0.00,WUHU216HW,2013-05-11 16:54:00,
2013-05-11 12:59:00,81.0,62.7,29.97,SW,225,8.9,8.9,54,0.00,,,0.00,WUHU216HW,2013-05-11 16:59:00,
2013-05-11 13:04:00,81.0,62.7,29.97,SW,225,8.9,8.9,54,0.00,,,0.00,WUHU216HW,2013-05-11 17:04:00,
2013-05-11 13:09:00,81.0,62.7,29.97,SW,225,6.9,8.9,54,0.00,,,0.00,WUHU216HW,2013-05-11 17:09:00,
2013-05-11 13:14:00,80.6,62.4,29.98,SW,225,6.6,8.9,54,0.00,,,0.00,WUHU216HW,2013-05-11 17:14:00,
2013-05-11 13:19:00,80.5,62.2,29.98,West,270,9.4,9.4,54,0.00,,,0.00,WUHU216HW,2013-05-11 17:19:00,
2013-05-11 13:24:00,79.9,61.7,29.97,West,270,7.8,9.4,54,0.00,,,0.00,WUHU216HW,2013-05-11 17:24:00,
2013-05-11 13:29:00,79.9,62.3,29.97,WNW,293,3.1,9.4,55,0.00,,,0.00,WUHU216HW,2013-05-11 17:29:00,
2013-05-11 13:34:00,81.7,64.5,29.97,WSW,248,4.7,7.8,56,0.00,,,0.00,WUHU216HW,2013-05-11 17:34:00,
2013-05-11 13:39:00,81.7,63.4,29.97,SW,225,8.5,8.5,54,0.00,,,0.00,WUHU216HW,2013-05-11 17:39:00,
2013-05-11 13:44:00,80.8,63.1,29.97,SW,225,7.6,8.5,55,0.00,,,0.00,WUHU216HW,2013-05-11 17:44:00,
2013-05-11 13:49:00,80.1,61.9,29.97,WSW,248,7.8,8.5,54,0.00,,,0.00,WUHU216HW,2013-05-11 17:49:00,
2013-05-11 13:55:00,78.8,61.8,29.97,SW,225,7.6,7.8,56,0.00,,,0.00,WUHU216HW,2013-05-11 17:55:00,
2013-05-11 14:00:00,78.5,61.5,29.97,West,270,6.0,7.8,56,0.00,,,0.00,WUHU216HW,2013-05-11 18:00:00,
2013-05-11 14:05:00,78.5,62.5,29.97,WSW,251,5.0,7.6,58,0.00,,,0.00,WUHU216HW,2013-05-11 18:05:00,
2013-05-11 14:10:00,78.7,63.2,29.96,SW,221,3.9,6.0,59,0.00,,,0.00,WUHU216HW,2013-05-11 18:10:00,
2013-05-11 14:15:00,79.2,64.3,29.96,WSW,248,4.3,4.3,60,0.00,,,0.00,WUHU216HW,2013-05-11 18:15:00,
2013-05-11 14:20:00,79.9,63.8,29.97,WSW,248,11.2,11.2,58,0.00,,,0.00,WUHU216HW,2013-05-11 18:20:00,
2013-05-11 14:25:00,79.7,62.1,29.97,West,270,8.5,11.2,55,0.00,,,0.00,WUHU216HW,2013-05-11 18:25:00,
2013-05-11 14:30:00,79.7,62.7,29.96,SW,225,6.7,11.2,56,0.00,,,0.00,WUHU216HW,2013-05-11 18:30:00,
2013-05-11 14:35:00,79.7,62.7,29.96,SW,225,6.7,8.5,56,0.00,,,0.00,WUHU216HW,2013-05-11 18:35:00,
2013-05-11 14:40:00,80.3,64.2,29.95,SW,219,5.1,6.7,58,0.00,,,0.00,WUHU216HW,2013-05-11 18:40:00,
2013-05-11 14:45:00,80.1,62.5,29.95,WSW,248,8.9,8.9,55,0.00,,,0.00,WUHU216HW,2013-05-11 18:45:00,
2013-05-11 14:50:00,80.1,62.5,29.95,WSW,248,8.9,8.9,55,0.00,,,0.00,WUHU216HW,2013-05-11 18:50:00,
2013-05-11 14:55:00,79.0,63.0,29.95,South,180,4.7,8.9,58,0.00,,,0.00,WUHU216HW,2013-05-11 18:55:00,
2013-05-11 15:00:00,78.7,63.2,29.95,SSE,158,2.9,8.9,59,0.00,,,0.00,WUHU216HW,2013-05-11 19:00:00,
2013-05-11 15:05:00,78.1,62.6,29.96,SSE,155,7.8,8.9,59,0.00,,,0.00,WUHU216HW,2013-05-11 19:05:00,
2013-05-11 15:11:00,77.4,62.5,29.96,SW,225,15.7,15.7,60,0.00,,,0.00,WUHU216HW,2013-05-11 19:11:00,
2013-05-11 15:16:00,76.5,62.5,29.96,SW,225,5.4,15.7,62,0.00,,,0.00,WUHU216HW,2013-05-11 19:16:00,
2013-05-11 15:21:00,76.3,62.4,29.95,SW,225,12.8,15.7,62,0.00,,,0.00,WUHU216HW,2013-05-11 19:21:00,
2013-05-11 15:26:00,76.1,62.7,29.96,West,270,11.9,12.8,63,0.00,,,0.00,WUHU216HW,2013-05-11 19:26:00,
2013-05-11 15:31:00,76.1,63.5,29.95,WSW,248,5.4,12.8,65,0.00,,,0.00,WUHU216HW,2013-05-11 19:31:00,
2013-05-11 15:36:00,76.5,63.4,29.95,WSW,248,9.8,11.9,64,0.00,,,0.00,WUHU216HW,2013-05-11 19:36:00,
2013-05-11 15:41:00,76.3,62.8,29.95,WSW,248,8.1,9.8,63,0.00,,,0.00,WUHU216HW,2013-05-11 19:41:00,
2013-05-11 15:46:00,76.3,62.8,29.94,SSE,158,8.1,8.1,63,0.00,,,0.00,WUHU216HW,2013-05-11 19:46:00,
2013-05-11 15:51:00,76.3,62.8,29.94,SSE,158,8.1,8.1,63,0.00,,,0.00,WUHU216HW,2013-05-11 19:51:00,
2013-05-11 15:56:00,77.2,63.6,29.93,SW,223,5.6,8.1,63,0.00,,,0.00,WUHU216HW,2013-05-11 19:56:00,
2013-05-11 16:01:00,77.2,63.6,29.94,WSW,248,4.9,8.1,63,0.00,,,0.00,WUHU216HW,2013-05-11 20:01:00,
2013-05-11 16:06:00,76.7,61.7,29.94,WSW,248,10.7,10.7,60,0.00,,,0.00,WUHU216HW,2013-05-11 20:06:00,
2013-05-11 16:11:00,76.7,61.7,29.94,WSW,248,10.7,10.7,60,0.00,,,0.00,WUHU216HW,2013-05-11 20:11:00,
2013-05-11 16:16:00,76.9,63.3,29.94,SW,235,5.1,10.7,63,0.00,,,0.00,WUHU216HW,2013-05-11 20:16:00,
2013-05-11 16:21:00,76.7,63.1,29.94,West,270,8.7,10.7,63,0.00,,,0.00,WUHU216HW,2013-05-11 20:21:00,
2013-05-11 16:26:00,76.3,63.2,29.94,SSW,203,7.2,8.7,64,0.00,,,0.00,WUHU216HW,2013-05-11 20:26:00,
2013-05-11 16:31:00,76.3,63.2,29.93,South,180,6.7,8.7,64,0.00,,,0.00,WUHU216HW,2013-05-11 20:31:00,
2013-05-11 16:36:00,75.2,62.6,29.93,SW,225,6.0,6.7,65,0.00,,,0.00,WUHU216HW,2013-05-11 20:36:00,
2013-05-11 16:41:00,75.1,62.9,29.93,WSW,248,11.0,11.0,66,0.00,,,0.00,WUHU216HW,2013-05-11 20:41:00,
2013-05-11 16:46:00,75.4,63.3,29.93,WSW,240,9.8,11.0,66,0.00,,,0.00,WUHU216HW,2013-05-11 20:46:00,
2013-05-11 16:52:00,75.4,63.3,29.93,SE,135,5.4,11.0,66,0.00,,,0.00,WUHU216HW,2013-05-11 20:52:00,
2013-05-11 16:57:00,76.3,63.2,29.93,WSW,248,11.6,11.6,64,0.00,,,0.00,WUHU216HW,2013-05-11 20:57:00,
2013-05-11 17:02:00,76.3,63.2,29.93,WSW,248,11.6,11.6,64,0.00,,,0.00,WUHU216HW,2013-05-11 21:02:00,
2013-05-11 17:07:00,75.6,63.0,29.93,West,270,9.8,11.6,65,0.00,,,0.00,WUHU216HW,2013-05-11 21:07:00,
2013-05-11 17:12:00,75.8,63.2,29.92,WSW,248,4.1,11.6,65,0.00,,,0.00,WUHU216HW,2013-05-11 21:12:00,
2013-05-11 17:17:00,75.8,63.2,29.92,SW,225,2.5,9.8,65,0.00,,,0.00,WUHU216HW,2013-05-11 21:17:00,
2013-05-11 17:22:00,76.9,63.7,29.92,WSW,248,10.3,10.3,64,0.00,,,0.00,WUHU216HW,2013-05-11 21:22:00,
2013-05-11 17:27:00,77.4,63.8,29.92,SW,225,6.9,10.3,63,0.00,,,0.00,WUHU216HW,2013-05-11 21:27:00,
2013-05-11 17:32:00,77.4,63.4,29.92,WSW,248,8.9,10.3,62,0.00,,,0.00,WUHU216HW,2013-05-11 21:32:00,
2013-05-11 17:37:00,77.0,63.0,29.92,SW,225,10.5,10.5,62,0.00,,,0.00,WUHU216HW,2013-05-11 21:37:00,
2013-05-11 17:42:00,76.7,63.1,29.91,WSW,248,10.5,10.5,63,0.00,,,0.00,WUHU216HW,2013-05-11 21:42:00,
2013-05-11 17:47:00,76.1,62.7,29.92,WSW,244,11.2,12.1,63,0.00,,,0.00,WUHU216HW,2013-05-11 21:47:00,
2013-05-11 17:52:00,76.3,62.8,29.91,SW,218,5.0,12.1,63,0.00,,,0.00,WUHU216HW,2013-05-11 21:52:00,
2013-05-11 17:57:00,76.3,62.8,29.91,WSW,248,8.9,8.9,63,0.00,,,0.00,WUHU216HW,2013-05-11 21:57:00,
2013-05-11 18:02:00,76.3,62.4,29.91,WSW,248,10.1,10.1,62,0.00,,,0.00,WUHU216HW,2013-05-11 22:02:00,
2013-05-11 18:07:00,76.0,62.0,29.91,WSW,248,9.8,10.1,62,0.00,,,0.00,WUHU216HW,2013-05-11 22:07:00,
2013-05-11 18:12:00,76.0,62.0,29.91,West,270,10.3,10.3,62,0.00,,,0.00,WUHU216HW,2013-05-11 22:12:00,
2013-05-11 18:17:00,75.6,62.1,29.91,SSW,203,7.6,10.3,63,0.00,,,0.00,WUHU216HW,2013-05-11 22:17:00,
2013-05-11 18:22:00,75.4,62.4,29.90,SE,135,7.4,10.3,64,0.00,,,0.00,WUHU216HW,2013-05-11 22:22:00,
2013-05-11 18:27:00,75.8,61.8,29.89,WSW,248,14.8,14.8,62,0.00,,,0.00,WUHU216HW,2013-05-11 22:27:00,
2013-05-11 18:32:00,75.8,61.8,29.90,WSW,248,14.8,14.8,62,0.00,,,0.00,WUHU216HW,2013-05-11 22:32:00,
2013-05-11 18:37:00,75.8,62.3,29.90,SSW,203,4.0,14.8,63,0.00,,,0.00,WUHU216HW,2013-05-11 22:37:00,
2013-05-11 18:42:00,75.8,61.4,29.90,SW,225,12.1,14.8,61,0.00,,,0.00,WUHU216HW,2013-05-11 22:42:00,
2013-05-11 18:48:00,75.4,61.1,29.90,SW,225,10.5,12.1,61,0.00,,,0.00,WUHU216HW,2013-05-11 22:48:00,
2013-05-11 18:53:00,75.2,60.9,29.90,WSW,248,8.9,12.1,61,0.00,,,0.00,WUHU216HW,2013-05-11 22:53:00,
2013-05-11 18:58:00,75.2,60.9,29.90,WSW,248,8.9,10.5,61,0.00,,,0.00,WUHU216HW,2013-05-11 22:58:00,
2013-05-11 19:03:00,75.2,61.4,29.91,SSE,158,4.7,8.9,62,0.00,,,0.00,WUHU216HW,2013-05-11 23:03:00,
2013-05-11 19:08:00,75.2,61.4,29.91,SSE,158,4.7,8.9,62,0.00,,,0.00,WUHU216HW,2013-05-11 23:08:00,
2013-05-11 19:13:00,75.2,61.4,29.92,West,270,5.4,5.4,62,0.00,,,0.00,WUHU216HW,2013-05-11 23:13:00,
2013-05-11 19:18:00,75.2,61.4,29.92,West,270,5.4,5.4,62,0.00,,,0.00,WUHU216HW,2013-05-11 23:18:00,
2013-05-11 19:23:00,74.5,61.1,29.92,WSW,248,5.4,5.4,63,0.00,,,0.00,WUHU216HW,2013-05-11 23:23:00,
2013-05-11 19:28:00,74.2,61.2,29.92,WSW,248,4.8,5.4,64,0.00,,,0.00,WUHU216HW,2013-05-11 23:28:00,
2013-05-11 19:33:00,74.0,61.0,29.92,West,261,3.4,5.4,64,0.00,,,0.00,WUHU216HW,2013-05-11 23:33:00,
2013-05-11 19:38:00,74.0,61.0,29.92,West,270,2.9,4.7,64,0.00,,,0.00,WUHU216HW,2013-05-11 23:38:00,
2013-05-11 19:43:00,73.6,61.1,29.92,WSW,248,4.0,4.0,65,0.00,,,0.00,WUHU216HW,2013-05-11 23:43:00,
2013-05-11 19:49:00,73.6,61.1,29.93,WSW,248,4.0,4.0,65,0.00,,,0.00,WUHU216HW,2013-05-11 23:49:00,
2013-05-11 19:54:00,73.6,61.1,29.93,WSW,248,4.0,4.0,65,0.00,,,0.00,WUHU216HW,2013-05-11 23:54:00,
2013-05-11 19:59:00,73.6,61.1,29.92,WSW,248,4.0,4.0,65,0.00,,,0.00,WUHU216HW,2013-05-11 23:59:00,
2013-05-11 20:04:00,73.6,61.1,29.92,WSW,248,4.0,4.0,65,0.00,,,0.00,WUHU216HW,2013-05-12 00:04:00,
2013-05-11 22:04:00,65.9,57.3,29.94,SSE,158,3.1,3.1,74,0.00,,,0.00,WUHU216HW,2013-05-12 02:04:00,
2013-05-11 22:10:00,65.7,57.2,29.94,South,171,2.5,3.1,74,0.00,,,0.00,WUHU216HW,2013-05-12 02:10:00,
2013-05-11 22:15:00,65.5,57.0,29.95,South,173,2.1,3.1,74,0.00,,,0.00,WUHU216HW,2013-05-12 02:15:00,
2013-05-11 22:20:00,65.5,57.0,29.95,SSE,158,1.8,2.2,74,0.00,,,0.00,WUHU216HW,2013-05-12 02:20:00,
2013-05-11 22:25:00,65.5,57.0,29.95,SSE,158,1.8,1.8,74,0.00,,,0.00,WUHU216HW,2013-05-12 02:25:00,
2013-05-11 22:30:00,65.5,57.0,29.95,SSE,158,1.8,1.8,74,0.00,,,0.00,WUHU216HW,2013-05-12 02:30:00,
2013-05-11 22:35:00,65.5,57.0,29.95,SSE,158,1.8,1.8,74,0.00,,,0.00,WUHU216HW,2013-05-12 02:35:00,
2013-05-11 23:33:00,64.4,58.1,29.95,WSW,248,1.8,1.8,80,0.00,,,0.00,WUHU216HW,2013-05-12 03:33:00,
2013-05-11 23:38:00,64.4,58.5,29.95,WSW,248,5.1,5.1,81,0.00,,,0.00,WUHU216HW,2013-05-12 03:38:00,
2013-05-11 23:43:00,64.4,58.9,29.96,WSW,253,3.9,5.1,82,0.00,,,0.00,WUHU216HW,2013-05-12 03:43:00,
2013-05-11 23:49:00,64.3,58.7,29.96,WSW,248,6.7,6.7,82,0.00,,,0.00,WUHU216HW,2013-05-12 03:49:00,
2013-05-11 23:54:00,64.3,58.7,29.96,WSW,248,4.0,6.7,82,0.00,,,0.00,WUHU216HW,2013-05-12 03:54:00,
2013-05-11 23:59:00,64.3,58.7,29.95,West,270,5.4,6.7,82,0.00,,,0.00,WUHU216HW,2013-05-12 03:59:00,